This is the latest recevied weather packets stored in our database for station/object KM4RT-13. If no packets are shown the sender has not sent any weather packets the latest 10 day(s).
| Time | Temp. | Humidity | Pressure | Rain* | Wind** | Luminosity | Snow |
|---|---|---|---|---|---|---|---|
| 1777763277 | 18.89° C | 39% | 1014.5 hPa | 0 mm | - | 126 W/m² | - |
| 1777762975 | 18.89° C | 39% | 1014.5 hPa | 0 mm | - | 124 W/m² | - |
| 1777762670 | 19.44° C | 38% | 1014.5 hPa | 0 mm | - | 110 W/m² | - |
| 1777762368 | 19.44° C | 37% | 1014.4 hPa | 0 mm | - | 121 W/m² | - |
| 1777762064 | 19.44° C | 39% | 1014.4 hPa | 0 mm | - | 172 W/m² | - |
| 1777761761 | 19.44° C | 40% | 1014.3 hPa | 0 mm | - | 194 W/m² | - |
| 1777761458 | 19.44° C | 39% | 1014.3 hPa | 0 mm | - | 61 W/m² | - |
| 1777761156 | 20° C | 38% | 1014.2 hPa | 0 mm | - | 94 W/m² | - |
| 1777760853 | 20° C | 39% | 1014.2 hPa | 0 mm | - | 82 W/m² | - |
| 1777760550 | 20° C | 39% | 1014.2 hPa | 0 mm | - | 82 W/m² | - |
| 1777760246 | 20° C | 39% | 1014.2 hPa | 0 mm | - | 67 W/m² | - |
| 1777759943 | 20° C | 38% | 1014.4 hPa | 0 mm | - | 75 W/m² | - |
| 1777759639 | 20° C | 39% | 1014.3 hPa | 0 mm | - | 107 W/m² | - |
| 1777759335 | 20° C | 40% | 1014 hPa | 0 mm | - | 131 W/m² | - |
| 1777759033 | 20° C | 39% | 1014.2 hPa | 0 mm | - | 123 W/m² | - |
| 1777758730 | 20.56° C | 39% | 1014.2 hPa | 0 mm | - | 146 W/m² | - |
| 1777758427 | 20° C | 39% | 1014 hPa | 0 mm | - | 117 W/m² | - |
| 1777758124 | 19.44° C | 39% | 1014.2 hPa | 0 mm | - | 142 W/m² | - |
| 1777757821 | 19.44° C | 39% | 1014.2 hPa | 0 mm | - | 122 W/m² | - |
| 1777757518 | 19.44° C | 38% | 1014.1 hPa | 0 mm | - | 165 W/m² | - |
| 1777757217 | 19.44° C | 38% | 1014.4 hPa | 0 mm | - | 353 W/m² | - |
| 1777756915 | 19.44° C | 38% | 1014.1 hPa | 0 mm | - | 183 W/m² | - |
| 1777756610 | 19.44° C | 39% | 1014.1 hPa | 0 mm | - | 173 W/m² | - |
| 1777756308 | 20° C | 40% | 1014.1 hPa | 0 mm | - | 190 W/m² | - |
| 1777756005 | 19.44° C | 38% | 1014 hPa | 0 mm | - | 159 W/m² | - |
* Rain latest hour (hover to see other rain measurements)
** Current wind speed in m/s (hover to see current wind gust speed)